NapervilleWeather.com

Find the Weather for any City, State  
or Zipcode, or Country:

Naperville, IL Weather
Local Radar

Local Radar

Graphs, Details
Graphs and Gauges
Detailed Weather
Detailed Reports
Ajax Version (old)
Davis Summary
Davis Current Weather Graphs
Davis 24 Hour Weather History
Cumulus

CW7164 Data

Weather Underground
www.awekas.at
Automatic Weather Map System
Latest Naperville, Illinois, weather
Weather For You
Maps
Temperature
Heat Index
Windchill
Humidity
Radar
Dew Point
Wind
Visibility
Visible Satellite
Satellite
Fronts
Snow Depth
Jet Stream
Flight Rules
Forecast Maps
Temperature Forecast
Maximum Temperature Forecast
Minimum Temperature Forecast
Dewpoint Forecast
Prevalent Weather
12Hr Probability of Precip.
Sky Cover
Health Maps
UV Forecast
Air Quality
Peak Air Quality Index
Weather Station
Davis Instruments Vantage Pro2
Current Conditions [Select Refresh to Update]

Updated: 1:26am on 4/25/14

(location)
Currently:
50.7°F

Clear
rain

High: 56.5 °F< 
(12:00am
Low: 50.7 °F 
(1:24am)
Wind: NE 0 mph
Calm
Gust: 0 mph
Today's High Wind: 4 mph (12:06am)
Humidity: 85%
Pressure: 29.66 in  (Steady
Pressure Rate: 0.005 in/hr
Dew Point: 46.4°F
Wind Chill: 50.7 °F
Heat Index (feels like): 55.6 °F
Comfort Level: Cool
Temperature Rate:  -3.42°F/hr
 
5 Day Forecast
 
Fri Sat Sun Mon Tue
Clear Clear Clear Clear Clear
Partly Cloudy Partly Cloudy Rain Chance T-storms Chance T-storms
68 55 59 52 66
41 41 41 46 39

Records and Normals
 
Temperature Forecast Normal Record
High 68 64 79
(2008)
Low 41 41 28
(1997)
 
 
Weather Advisories
No Warnings
Full Advisory Text...
Weather Map

Web Cam

Almanac
 
Sunrise:  
5:55am
Moonrise: 
3:49am

Moon Phase:
19%

Sunset: 
7:43pm
Moonset:  
4:03pm
 Star Chart...
Rainfall Totals
Hourly Rain 0.08 in
Daily Rain: 0.08 in
Monthly Rain: 2.19 in
Yearly Rain: 7.04 in
Normal Rain, month to date: 1.13 in
Normal Rain, year to date: 2.80 in
Local Weather Exchange Network
Station ID City 
(Click for Map Location)
Neighborhood 
(Click for History)
Last Update (Date & Time) Temperature
 ()
Dew
Point ()
Humidity 
(%)
Wind 
(mph)
from the Wind Gust 
(mph) 
Pressure(in) Hourly
Rain(in)
KILNAPER15 Naperville Indian Hill Near Jefferson JHS 04/25 01:19:53 50.4 46.0 86 0 ESE 0 29.64 0.08
KILNAPER21 Naperville Saybrook 04/25 01:00:16 52.0 44.0 75 1 SE 4 29.66 0.05
KILNAPER24 Naperville Brush Hill 04/25 01:15:14 51.0 46.0 84 0 SE 0 29.57 0.10
KILWARRE4 Warrenville Cerny Park 04/25 01:15:09 50.4 46.0 84 0 West 0 29.62 0.08
KILNAPER19 Naperville Brookdale Lakes 04/25 01:20:02 51.8 46.0 80 0 East 2 29.61 0.14
KILNAPER7 Naperville NapervilleWeather.com Near Ogden and Naper Blvd 04/25 01:20:02 50.8 46.0 84 0 NE 0 29.66 0.07
KILWARRE2 Warrenville Warrenville Neighborhood Weather 04/25 01:19:59 49.8 46.0 87 0 SE 0 29.62 0.10
KILNAPER23 Naperville Naper Blvd at BNSF RR 04/25 01:20:01 49.7 46.0 88 0 South 0 29.65 0.08
KILNAPER9 Naperville 75th St. / Modaff Area 04/25 01:20:02 50.7 46.0 84 0 SE 0 29.63 0.10
KILWHEAT8 Wheaton Wheaton Sanitary District 04/25 01:06:01 52.4 48.0 85 0 East 0 29.64 0.06
KILLOMBA6 Wheaton Danada West 04/25 01:19:26 50.7 44.0 79 0 ESE 0 29.58 0.10
KILLISLE3 Lisle Main and Short Lisle 04/25 01:15:06 53.4 42.0 66 0 SSE 0 29.48 0.00
KILNAPER16 Naperville SE Naperville / NE Clow Arpt 04/25 01:17:01 52.0 45.0 77 3 SSE 5 29.64 0.06
KILNAPER22 Naperville Willow Ridge 04/25 01:09:30 49.8 46.0 86 0 West 0 29.44 0.00
KILWHEAT5 Wheaton N9ABF - West Wheaton 04/25 01:19:20 50.5 45.0 80 0 ESE 0 29.63 0.00
KILWINFI2 Winfield Winfield Heights (SarahNet) 04/25 01:09:29 51.2 45.0 79 0 ESE 0 29.64 0.04
MUP431 West Chicago MesoWest WINFL1 IL US UPR 04/24 22:55:00 54.0 0.0 0 0 North 0 0.00 0.00
KILWHEAT7 Wheaton South Wheaton 04/25 01:19:59 51.3 46.0 82 0 ENE 1 29.59 0.06
KILWOODR4 Woodridge Woodridge Neighborhood Weather 04/25 01:06:42 54.0 43.0 67 0 SSE 0 29.62 0.02
KILWINFI3 Winfield Fredericksburg Farm 04/25 01:20:00 49.3 46.0 87 0 ESE 0 29.57 0.12
KILWHEAT10 Wheaton Wheaton College 04/25 01:15:16 52.4 42.0 69 1 East 2 29.63 0.08
KILWOODR2 Woodridge Woodridge 04/25 01:20:00 52.8 45.0 76 0 SE 0 29.51 0.04
KILWOODR1 Woodridge 75th Street/ Janes Ave 04/25 01:20:01 52.0 45.0 78 0 NW 1 28.87 0.05
KILBATAV5 Batavia Fermi National Accelerator Laboratory 04/25 01:05:05 51.2 46.0 81 0 SE 1 29.60 0.06
KILAUROR20 Aurora Columbia Station 04/25 01:19:59 50.7 49.0 93 0 NE 1 29.78 0.11
KILGLENE1 Glen Ellyn Butterfield West 04/25 01:19:44 50.7 45.0 80 0 SE 0 29.65 0.05
KILBOLIN15 Bolingbrook Winding Meadows 04/25 01:20:02 52.6 37.0 55 0 SE 2 29.68 0.06
KILDOWNE3 Downers Grove Maple Woods West 04/25 01:20:03 55.3 49.0 78 0 SSE 0 29.67 0.05
KILBOLIN12 Bolingbrook UnderTheThunder HQ 04/25 01:13:20 53.4 44.0 71 2 South 8 29.63 0.04
KILAUROR22 Aurora Lakewood Valley 04/25 01:13:55 49.8 46.0 85 2 NE 0 29.40 0.00
KILCHICA63 Glen Ellyn Glen Ellyn Neighborhood Weather 04/25 01:19:59 52.3 0.0 0 0 North 0 0.00 0.00
KILAUROR23 Aurora Summerlin 04/25 01:08:23 50.7 44.0 78 2 SSE 0 29.47 0.00
KILGLENE7 Glen Ellyn Glen Ellyn Civic Center 04/25 01:15:26 53.4 45.0 73 1 SE 1 29.70 0.07
KILBOLIN8 Bolingbrook Bolingbrook Neighborhood Weather 04/25 01:19:25 52.5 45.0 75 0 South 6 29.64 0.06
KILBOLIN16 Bolingbrook Huntington Estates 04/25 01:19:57 54.0 43.0 66 3 SSE 6 29.62 0.04
KILWESTC8 West Chicago Ingalton Hills Estates 04/25 01:19:57 51.0 48.0 91 0 NNE 0 29.75 0.01
KILDARIE3 Darien Darien, Near 75th St and Lemont Rd (60561) 04/25 01:19:53 52.8 28.0 38 0 South 1 29.50 0.00
KDPA Chicago DuPage Official Station 04/25 00:52:00 51.0 44.0 77 4 East --- 29.64 ---
KLOT Romeoville Official Station 04/25 00:55:00 52.0 40.0 64 10 South --- 29.64 ---
KARR Aurora Official Station 04/25 00:52:00 54.0 41.0 62 7 ESE --- 29.64 ---
Full Advisory Text
No Warnings

Ambient Weather and Weather Underground
 Never base important decisions on this or any weather information obtained from the Internet
Updated Automatically by Ambient Weather's Virtual Weather Station  V14.01